Hourly Data Report for September 22, 2017

All times are specified in Local Standard Time (LST). Add 1 hour to adjust for Daylight Saving Time where and when it is observed.

GRAND MANAN SAR CS
NEW BRUNSWICK

44°42'43.400" N
66°48'06.900" W
78.20 m
8101925
71030
XGM

Download Data

Hourly Data (September 2017)
Hourly Data Report for September 22, 2017
Temp Definition
°C
Dew Point Temp Definition
°C
Rel Hum Definition
%
Wind Dir Definition
10's deg

Wind Spd Definition
km/h
Visibility Definition
km
Stn Press Definition
kPa
Hmdx Definition


Wind Chill Definition


Weather Definition


TIME
00:00 12.5 10.3 86 5 20   101.21     LegendNANA
01:00 12.2 10.6 90 5 17   101.23     LegendNANA
02:00 12.2 10.6 90 6 20   101.20     LegendNANA
03:00 12.2 10.9 92 6 21   101.17     LegendNANA
04:00 12.1 10.9 92 5 21   101.16     LegendNANA
05:00 12.1 11.1 93 6 22   101.15     LegendNANA
06:00 12.1 11.0 93 7 21   101.14     LegendNANA
07:00 12.6 11.5 93 6 22   101.17     LegendNANA
08:00 12.8 11.3 91 6 23   101.18     LegendNANA
09:00 13.3 11.5 89 6 29   101.18     LegendNANA
10:00 14.0 12.0 87 6 27   101.19     LegendNANA
11:00 14.2 12.0 87 6 30   101.16     LegendNANA
12:00 15.2 11.8 80 7 27   101.17     LegendNANA
13:00 15.0 11.8 81 6 29   101.10     LegendNANA
14:00 16.1 11.3 73 7 21   101.07     LegendNANA
15:00 15.5 11.6 78 6 19   101.04     LegendNANA
16:00 15.6 11.3 75 6 18   101.01     LegendNANA
17:00 15.5 10.1 70 5 16   101.00     LegendNANA
18:00 15.0 9.9 71 6 9   100.96     LegendNANA
19:00 14.0 9.7 75 6 12   100.97     LegendNANA
20:00 14.6 10.0 74 7 14   100.95     LegendNANA
21:00 14.6 9.8 73 8 17   100.94     LegendNANA
22:00 14.1 10.7 80 8 10   100.95     LegendNANA
23:00 14.9 10.9 77 10 16   100.94     LegendNANA

Notes on Data Quality.

Legend

  • E = Estimated
  • M = Missing
  • NA = Not Available
  • ‡ = Partner data that is not subject to review by the National Climate Archives
Date modified: